SL-12 R/B(AUX MOTOR), 36406

Orbit data source: Space-Track

SL-12 R/B(AUX MOTOR), 36406 is space debris in HEO originally from a launch on Mon, 01 Mar 2010 UTC launched from the Tyuratam Missile And Space Complex (TTMTR). Debris objects in space refer to the collection of defunct objects orbiting the Earth. Examples of debris include non-operational satellites, rocket bodies, and fragments generated from explosions, collisions, or faulty payload assembly.

Loading next visibility...
Identifier
36406, 2010-007G
Orbit
HEO
Country
Flag of CISCIS
Related business
Manufacturer
RKKE
Mission
Spacecraft
Bus & Motor
SOZ, Unknown motor
Mass
56 kg wet, 56 kg dry
Launch date (UTC)
2010-03-01 (16 years ago)
Launch vehicle
Unknown
Launch site
Tyuratam Missile And Space Complex (TTMTR)
Object type
Payload
Rocket body
Debris
Shape & HBR
Cyl, 0.6 m
Radar Cross Section
0.660 m², Medium (>0.1 m² and < 1m²)

Expand to show TLE details & history
Last TLE update: 1 day ago

TLE from 1 day ago
0 SL-12 R/B(AUX MOTOR)
1 36406U 10007G   25287.31754552  .00000098  00000-0  54370-3 0  9992
2 36406  64.6807 300.8122 5664105 335.1132   5.8366  4.23072790172825
Epoch: 2025-10-14T07:37Z
TLE epoch observation values (Epoch: 2025-10-14T07:37:15.932Z)
Latitude
-0.00047°
Longitude
163.40043°
Altitude
875.554 km
Speed
9.233 km/s
True Right ascension
20h 03m 17s
True Declination
0° 00' 02"
Sunlit
Object was in daylight at epoch
Visualization orbit readout
Latitude
Unknown
Longitude
Unknown
Altitude
Unknown
Speed
Unknown
Apparent Right ascension
Unknown
Apparent Declination
Unknown
Sunlit
N/A
Visualization observer readout
Local Sidereal Time
07:05:14
Azimuth
Unknown
Elevation
Unknown
Doppler factor
Unknown
Orbital elements
Apogee altitude
18,914.924 km
Perigee altitude
623.097 km
Semi-major axis
16,147.147 km
Eccentricity
0.56641
Inclination
64.6807°
RAAN
300.8122°
Arg. of periapsis
335.1132°
True anomaly
24.99937°
Mean anomaly
5.8366°
Eccentric anomaly
13.30532°
Mean motion
1.05779 °/min
Orbital period
340.33 mins
BSTAR
0.0005437
Loading maneuver chart data...
Computing Atmospheric mass density...
Loading historical data...
Loading historical data...
Loading historical data...
Loading historical data...
Loading historical data...
Loading historical data...
Loading historical data...

Documentation

Showing up to 5 results
|